Location: Staunton
(38.1490°N, 79.0720°W)
Time: 02:02:04
(UTC-04:00)

ISS - Pass Details

Date: 13 August 2017
Orbit: 401 x 408 km, 51.6° (Epoch: 17 August)

Event Time Altitude Azimuth Distance (km) Brightness Sun altitude
Rises 21:20:26 0° 297° (WNW) 2,311 2.1 -13.1°
Reaches altitude 10° 21:22:45 10° 283° (WNW) 1,448 0.2 -13.5°
Maximum altitude 21:25:24 23° 228° (SW) 899 -1.9 -13.9°
Enters shadow 21:27:30 13° 180° (S) 1,272 -1.6 -14.3°
